Skip Page Navigation
NASA JPL Caltech
NASA Logo - Jet Propulsion Laboratory + View the NASA Portal
+ Center for Near-Earth Object Studies
JPL Home Earth Solar System Stars & Galaxies Technology
JPL Solar System Dynamics
BODIES ORBITS EPHEMERIDES TOOLS PHYSICAL DATA DISCOVERY FAQ SITE MAP
JPL Small-Body Database Browser
Search: [ help ]  
86225 (1999 TV97)
Classification: Main-belt Asteroid          SPK-ID: 2086225
Ephemeris | Orbit Diagram | Orbital Elements | Mission Design | Physical Parameters | Discovery Circumstances ]

[ show orbit diagram ]
Orbital Elements at Epoch 2459000.5 (2020-May-31.0) TDB
Reference: JPL 21 (heliocentric ecliptic J2000)
 Element Value Uncertainty (1-sigma)   Units 
e .1300266193721586 4.583e-08  
a 3.102664544545624 2.2869e-08 au
q 2.699235562772499 1.518e-07 au
i 16.38950707715336 5.196e-06 deg
node 181.6729308881287 1.5125e-05 deg
peri 225.9507979914076 2.714e-05 deg
M 263.763092370569 2.5202e-05 deg
tp 2459534.129487274741
(2021-Nov-15.62948727)
0.00014311 TDB
period 1996.184417714573
5.47
2.207e-05
6.042e-08
d
yr
n .1803440587980159 1.9939e-09 deg/d
Q 3.50609352631875 2.5843e-08 au
  Orbit Determination Parameters
   # obs. used (total)      1040  
   data-arc span      7634 days (20.90 yr)  
   first obs. used      1999-09-05  
   last obs. used      2020-07-30  
   planetary ephem.      DE431  
   SB-pert. ephem.      SB431-N16  
   condition code      0  
   norm. resid. RMS      .52479  
   source      ORB  
   producer      Otto Matic  
   solution date      2020-Aug-25 08:00:00  

Additional Information
 Earth MOID = 1.73235 au 
 Jupiter MOID = 2.02885 au 
 T_jup = 3.146 
[ show covariance matrix ]

Ephemeris | Orbit Diagram | Orbital Elements | Mission Design | Physical Parameters | Discovery Circumstances ]

Physical Parameter Table
Parameter Symbol Value Units Sigma Reference Notes
absolute magnitude H 14.0   n/a MPO348045  
diameter diameter 4.837 km 0.178 urn:nasa:pds:neowise_diameters_albedos::2.0[mainbelt] (http://adsabs.harvard.edu/abs/2011ApJ...741...68M)  
geometric albedo albedo 0.173   0.060 urn:nasa:pds:neowise_diameters_albedos::2.0[mainbelt] (http://adsabs.harvard.edu/abs/2011ApJ...741...68M)  

86225 (1999 TV97)          Discovered 1999-Oct-02 by LINEAR at Socorro
Reference: 20040830/Numbers.arcLast Updated: 2004-09-06

Alternate Designations
 1999 TV97 = 2001 BZ77 
Ephemeris | Orbit Diagram | Orbital Elements | Mission Design | Physical Parameters | Discovery Circumstances ]
ABOUT SSD CREDITS/AWARDS PRIVACY/COPYRIGHT GLOSSARY LINKS
FirstGov 2020-Sep-24 16:15 UT
(server date/time)  
NASA Home Page
Site Manager:   Ryan S. Park
Webmaster  Alan B. Chamberlin